sat.trackr.live / text

‹ back to catalog

AMOS-3

NORAD 32794 · 2008-022A

PAYLOAD ACTIVE UNKNOWN

§ Identity

Operator
Country
ISRA
Launch date
2008-04-28
Launch site
TYMSC
Launch vehicle
Mass (kg)
RCS (m²)
42.97

Purposes: comms

External: N2YO · Heavens-Above · Gunter

§ Orbital elements

Epoch: 2026-05-25T03:51:01.647072Z

Period
1,433.34 min
Inclination
0.3979°
Eccentricity
0.0001244
Mean motion
1.00464686 rev/d
Perigee alt
35,727.4 km
Apogee alt
35,737.8 km
Semi-major
42,110.7 km
B*
0.0000e+0
RAAN
86.5297°
Arg perigee
57.1413°
Mean anomaly
179.2495°
Rev number
8,210

§ Raw data

AMOS-31 32794U 08022A   26145.16043573  .00000145  00000+0  00000+0 0  99922 32794   0.3979  86.5297 0001244  57.1413 179.2495  1.00464686 82107

JSON: /api/v1/satellites/32794 · /tle

For live sub-satellite position, see the globe view (requires WebGL).

§ Visibility from observer

Set your observer location to see the next 7 days of passes ≥ 10°. The values pass through the URL so the page stays shareable.

No JS? Fill the form by hand. The geolocation button needs JavaScript.